This is the latest recevied weather packets stored in our database for station/object KC3AWA. If no packets are shown the sender has not sent any weather packets the latest 1 day(s).
| Time | Temp. | Humidity | Pressure | Rain* | Wind** | Luminosity | Snow |
|---|---|---|---|---|---|---|---|
| 1778036980 | 10.56° C | 97% | 1009.2 hPa | 4.32 mm | 0 m/s | 0 W/m² | - |
| 1778036678 | 10.56° C | 97% | 1009.5 hPa | 3.05 mm | 0 m/s | 0 W/m² | - |
| 1778036374 | 10° C | 97% | 1009.4 hPa | 0 mm | 0 m/s | 0 W/m² | - |
| 1778036071 | 10° C | 97% | 1009.3 hPa | 1.78 mm | 0 m/s | 0 W/m² | - |
| 1778035768 | 10° C | 97% | 1009.3 hPa | 1.78 mm | 0.45 m/s, 13° | 0 W/m² | - |
| 1778035465 | 10° C | 97% | 1009.5 hPa | 0 mm | 0.45 m/s, 319° | 0 W/m² | - |
| 1778035161 | 10° C | 97% | 1009.5 hPa | 1.78 mm | 0.45 m/s, 356° | 0 W/m² | - |
| 1778034858 | 10° C | 97% | 1009.5 hPa | 1.78 mm | 0.45 m/s, 11° | 0 W/m² | - |
| 1778034554 | 10° C | 97% | 1009.6 hPa | 1.27 mm | 0.45 m/s, 23° | 0 W/m² | - |
| 1778034252 | 10° C | 97% | 1009.8 hPa | 1.27 mm | 0.89 m/s, 12° | 0 W/m² | - |
| 1778033950 | 10° C | 97% | 1009.7 hPa | 0 mm | 0 m/s | 0 W/m² | - |
| 1778033647 | 10° C | 97% | 1009.7 hPa | 1.78 mm | 0.89 m/s, 8° | 0 W/m² | - |
| 1778033343 | 10° C | 96% | 1010 hPa | 4.83 mm | 1.34 m/s, 5° | 0 W/m² | - |
| 1778033042 | 10° C | 96% | 1009.8 hPa | 7.11 mm | 0.89 m/s, 20° | 0 W/m² | - |
| 1778032739 | 10° C | 96% | 1009.9 hPa | 11.94 mm | 0.45 m/s, 5° | 0 W/m² | - |
| 1778032436 | 10.56° C | 96% | 1010 hPa | 8.89 mm | 0 m/s | 0 W/m² | - |
| 1778032133 | 10.56° C | 96% | 1010.1 hPa | 4.83 mm | 0 m/s | 0 W/m² | - |
| 1778031830 | 10.56° C | 96% | 1009.8 hPa | 1.78 mm | 1.34 m/s, 343° | 0 W/m² | - |
| 1778031526 | 10.56° C | 96% | 1009.6 hPa | 4.32 mm | 0.45 m/s, 18° | 0 W/m² | - |
| 1778031224 | 10.56° C | 95% | 1009.6 hPa | 13.72 mm | 0.89 m/s, 337° | 0 W/m² | - |
| 1778030920 | 11.11° C | 95% | 1009.9 hPa | 10.67 mm | 4.02 m/s, 6° | 0 W/m² | - |
| 1778030617 | 12.22° C | 95% | 1010.2 hPa | 6.1 mm | 1.34 m/s, 123° | 0 W/m² | - |
| 1778030314 | 13.33° C | 95% | 1009.6 hPa | 4.83 mm | 0.45 m/s, 230° | 0 W/m² | - |
| 1778030011 | 13.33° C | 96% | 1009.5 hPa | 1.27 mm | 0.45 m/s, 309° | 0 W/m² | - |
| 1778029709 | 13.33° C | 96% | 1009.1 hPa | 1.27 mm | 0 m/s | 0 W/m² | - |
* Rain latest hour (hover to see other rain measurements)
** Current wind speed in m/s (hover to see current wind gust speed)